Temperature
19 20 20 21 20 20 19 18 18 19 18 19 18 17 18 19 19 19 19 20 20 20 20 20 20 20 20 20 20 19 19 19 19 19 19 19 19 18 18 18 18 18 18 17
20 20 20 20 20 20 20 19 18 19 18 18 18 18 18 18 19 18 19 19 19 20 20 20 20 20 19 19 19 19 19 19 19 19 19 19 18 18 18 18 18 17 17 17
18 19 20 19 19 19 19 18 18 18 18 17 17 17 18 18 18 18 19 19 19 19 19 20 19 19 19 19 19 19 19 18 18 18 18 18 18 18 18 18 17 17 17 17
16 19 19 19 19 19 19 18 18 18 17 17 17 18 18 19 19 19 19 18 18 19 19 19 19 19 19 18 18 18 18 18 18 18 18 18 17 17 17 17 17 17 17 17
14 17 18 18 19 18 18 18 17 17 17 17 17 17 18 19 19 19 19 18 18 18 19 18 18 18 18 18 18 18 17 17 17 17 17 17 17 17 17 17 17 16 16 16
14 17 17 18 19 19 18 18 17 17 16 16 16 16 17 19 19 19 18 18 18 18 18 18 18 18 17 17 17 17 17 17 17 17 17 17 17 16 16 16 16 16 16 16
14 16 16 17 17 18 18 18 17 17 17 16 16 17 18 18 18 18 19 18 18 18 18 18 18 17 17 17 17 17 17 16 16 17 16 16 16 16 16 16 16 16 16 15
13 15 16 17 16 17 16 17 17 17 17 17 17 17 18 18 18 18 18 18 18 18 17 17 17 17 17 17 17 16 16 16 16 16 16 16 16 16 16 16 15 15 15 15
13 14 15 16 16 17 17 17 17 17 17 17 17 17 17 17 17 17 18 17 17 17 17 17 17 17 16 16 16 16 16 16 15 15 15 15 15 15 15 15 15 14 14 14
12 13 14 15 16 16 17 17 17 17 17 17 17 17 17 17 17 17 17 17 17 16 16 16 16 16 16 16 15 15 15 15 15 15 15 14 14 14 14 14 14 14 14 14
12 13 14 15 16 16 16 17 17 17 17 17 17 17 17 16 16 16 16 16 16 16 16 16 16 16 16 15 15 15 15 15 14 14 14 14 14 14 14 14 13 13 13 13
13 13 13 14 16 16 16 16 16 17 17 17 17 16 16 16 16 16 16 16 15 15 15 15 15 15 15 15 15 15 15 14 14 14 14 14 13 13 13 13 13 13 13 13
15 15 15 15 15 15 15 16 16 16 16 16 16 16 16 15 15 15 15 15 15 15 15 15 14 14 14 14 14 14 14 14 14 14 13 13 13 13 13 13 12 13 13 12
15 15 14 15 15 15 15 15 15 15 15 15 15 15 15 15 15 15 14 14 14 14 14 14 14 14 14 14 14 14 14 14 13 13 13 12 12 12 12 12 12 12 12 12
15 15 15 15 15 15 15 15 15 15 15 15 15 14 14 14 14 14 14 14 14 14 14 14 14 14 14 13 13 13 13 13 13 13 12 12 12 12 12 12 11 11 11 11
14 15 15 14 14 14 14 14 14 14 14 14 14 14 14 14 14 14 14 14 14 13 13 13 13 13 13 13 13 13 13 13 12 12 12 12 12 11 11 11 11 11 11 11
14 14 14 14 14 14 14 14 14 14 14 14 13 13 13 13 13 13 13 13 13 13 13 13 13 13 13 13 13 13 13 12 12 12 12 11 11 11 11 11 11 11 11 11
14 14 14 14 14 14 14 13 13 13 13 13 13 13 13 13 13 13 12 12 12 12 13 13 13 13 13 12 12 12 12 12 12 12 12 11 11 11 11 11 11 11 10 10
14 14 14 14 14 14 13 13 13 13 13 13 13 13 12 12 12 12 12 12 12 12 12 12 12 12 12 12 12 12 12 12 12 12 11 11 11 11 11 11 11 10 10 10
13 13 13 13 13 13 13 13 13 13 13 12 12 12 12 12 12 12 12 12 12 12 12 12 12 12 12 12 11 11 11 11 11 11 11 11 11 11 11 10 10 10 10 10
13 13 13 13 13 13 12 12 12 12 12 12 12 12 12 12 12 11 11 11 12 12 12 12 12 12 12 11 11 11 11 11 11 11 11 11 11 10 10 10 10 10 10 10
12 12 12 12 12 12 12 12 12 12 12 12 11 11 11 11 11 11 11 11 11 11 11 11 11 11 11 11 11 11 11 11 10 10 10 10 10 10 10 10 10 10 10 10
12 12 12 12 12 12 12 12 12 12 12 11 11 11 11 11 11 11 11 11 11 11 11 11 11 11 11 11 11 11 11 10 10 10 10 10 10 10 10 10 10 10 10 10
12 12 12 12 12 12 12 11 11 11 11 11 11 11 11 11 11 11 11 11 11 11 11 11 11 11 11 11 11 10 10 10 10 10 10 10 10 10 10 10 10 10 10 10
11 11 12 12 11 11 11 11 11 11 11 11 11 11 11 11 11 11 11 11 11 11 10 10 10 11 10 10 10 10 10 10 10 10 10 10 10 10 10 10 10 10 9 9
11 11 11 11 11 11 11 11 11 11 11 11 11 11 10 10 10 10 10 10 10 10 10 10 10 10 10 10 10 10 10 10 10 10 10 10 10 10 10 9 9 9 9 9
11 11 11 11 11 11 11 11 11 11 11 11 11 10 10 10 10 10 10 10 10 10 10 10 10 10 10 10 10 10 10 10 9 9 9 9 9 9 9 9 9 9 9 8
Wind_Speed
5 4 3 4 4 5 5 8 8 8 7 8 5 4 3 2 2 1 1 1 0 1 2 2 3 3 3 3 4 4 5 6 8 7 7 7 7 7 7 7 8 7 7 6
1 2 3 3 4 5 4 4 5 4 6 5 2 0 1 1 1 0 0 0 1 1 2 3 4 4 3 3 3 3 5 6 6 6 6 7 6 6 6 7 6 6 7 7
2 2 2 3 5 5 3 3 5 6 6 2 1 1 2 2 1 1 2 1 1 2 3 3 4 4 4 4 3 3 4 4 5 6 6 7 7 6 6 6 5 5 6 6
1 2 4 7 2 3 3 2 3 4 3 4 3 2 3 3 2 2 2 1 2 2 3 3 3 3 2 2 2 3 3 4 4 4 5 5 5 5 5 4 4 4 4 5
3 3 4 5 2 3 4 3 3 3 2 2 1 2 3 2 1 3 3 2 2 2 2 2 2 2 1 1 2 2 3 3 4 4 4 4 4 4 3 3 3 4 4 4
4 3 6 7 4 2 3 3 3 2 3 2 1 1 5 3 2 2 1 0 1 1 1 1 2 1 1 1 2 3 3 3 2 3 4 4 4 4 3 3 3 3 3 3
3 4 7 5 5 1 3 6 4 4 4 3 4 6 5 3 3 2 0 0 0 1 1 1 1 1 1 1 3 3 2 1 1 2 3 4 4 3 3 3 3 3 3 3
4 3 7 3 1 3 5 4 3 4 4 4 5 5 4 4 3 1 0 1 0 0 1 1 0 1 1 2 2 1 1 0 1 1 2 2 3 3 3 4 4 4 3 2
6 6 5 3 3 4 3 3 3 3 3 3 4 5 4 3 2 2 2 2 1 1 0 1 1 1 2 2 1 0 1 0 0 1 1 1 3 3 3 3 3 3 3 2
2 5 5 6 4 4 3 3 3 3 3 2 4 5 4 3 2 2 2 1 1 1 0 1 1 0 1 1 1 1 1 0 0 0 1 1 2 2 3 3 3 3 3 3
3 5 5 5 5 4 4 4 3 2 2 2 3 4 3 3 3 2 1 1 0 1 1 1 1 1 0 1 2 1 1 1 1 1 1 2 2 1 2 2 4 4 3 3
5 6 4 6 6 5 4 4 4 3 3 2 2 3 3 3 3 3 2 1 1 1 1 1 1 1 1 1 2 3 2 1 1 2 2 2 2 2 3 1 1 2 4 4
5 4 4 6 5 4 4 4 4 3 2 2 2 1 2 2 2 2 2 2 2 2 2 1 1 1 2 1 2 3 3 2 2 2 2 2 2 2 1 3 4 3 1 2
4 2 3 4 4 4 4 3 2 2 2 2 1 1 1 0 0 1 1 2 2 1 1 1 1 2 2 0 2 2 3 3 3 2 2 2 2 2 2 2 1 2 2 1
3 3 4 4 3 3 2 1 2 2 2 2 1 1 1 1 1 1 1 1 1 1 1 1 1 2 1 1 2 2 2 2 2 2 2 2 2 2 2 2 2 1 1 2
2 2 1 1 2 2 2 2 1 1 1 1 1 1 0 1 1 1 0 1 1 2 2 2 2 3 2 2 2 2 2 3 3 2 2 2 1 1 1 2 2 1 1 1
1 2 2 2 2 2 2 2 2 2 1 1 1 1 0 1 1 1 2 1 1 2 2 2 3 2 2 2 3 2 2 3 3 3 2 2 2 2 2 2 2 2 2 2
5 5 5 4 4 3 3 3 2 1 2 2 1 0 0 0 1 2 2 1 1 2 3 3 3 2 2 2 2 2 2 2 3 3 2 2 2 2 2 2 2 2 2 2
2 3 3 3 3 3 3 2 2 2 2 1 0 1 1 2 2 2 1 1 1 2 4 3 3 2 2 3 3 2 2 2 2 2 2 3 2 2 2 2 3 3 3 2
1 1 1 2 2 2 2 2 2 2 1 1 1 1 1 2 2 1 1 2 3 4 4 3 2 2 2 3 3 2 3 3 2 2 2 2 2 2 2 3 3 3 3 3
2 2 1 1 1 1 2 2 1 1 1 1 2 2 2 2 1 0 1 3 5 4 2 2 1 2 2 2 3 2 2 2 2 2 2 2 2 2 3 3 3 3 3 3
1 1 1 0 0 1 2 1 1 1 1 0 0 0 0 1 2 2 2 3 4 4 2 1 1 2 2 2 2 2 2 2 2 2 2 3 3 3 3 3 3 3 3 3
2 1 1 1 1 1 1 1 1 1 1 2 1 2 2 2 1 1 3 4 3 3 2 2 2 2 2 2 2 2 2 2 3 3 3 3 3 3 3 3 3 3 3 3
2 1 1 1 1 1 1 2 2 1 1 2 2 2 2 1 2 3 3 4 3 2 1 2 2 2 1 1 1 1 2 2 2 2 2 2 2 3 3 3 3 3 3 3
1 1 1 2 1 1 2 2 2 2 1 1 2 2 1 2 2 3 2 2 3 2 2 2 2 2 1 1 1 1 1 2 2 2 2 2 2 2 2 2 2 2 2 2
1 1 1 1 1 1 1 0 1 1 1 1 2 2 1 1 2 2 2 2 2 2 2 1 1 1 0 1 1 1 1 1 1 1 2 2 2 2 1 2 2 2 2 2
2 1 1 2 2 1 1 1 1 2 1 1 2 2 2 2 2 2 2 2 2 2 2 1 0 0 0 0 0 0 0 0 0 0 1 1 1 1 1 2 2 2 2 2
Wind_Direction
227 227 193 214 218 196 190 189 191 223 224 252 264 270 287 316 8 59 59 62 152 209 219 224 226 226 226 232 225 220 216 216 220 220 218 220 219 217 212 210 216 214 211 215
265 230 207 247 251 218 215 196 207 218 247 252 254 337 342 340 51 101 246 185 231 250 252 249 243 238 238 239 234 221 222 226 224 217 215 214 216 215 211 211 214 209 208 208
245 294 37 270 241 201 185 193 178 206 233 225 227 277 269 265 230 239 255 287 270 261 261 261 258 247 235 237 238 231 233 229 222 215 213 213 213 213 216 216 213 208 207 202
155 80 224 241 257 168 162 213 211 213 221 204 213 256 262 243 228 249 251 262 288 289 289 288 279 275 262 232 209 219 228 225 221 217 217 215 210 213 220 215 203 204 206 203
132 186 266 289 260 169 174 256 241 202 214 227 134 358 314 257 218 248 244 250 256 255 258 274 265 247 232 236 224 226 238 233 219 207 204 202 205 207 208 196 197 201 197 190
132 168 224 246 276 248 134 264 261 201 217 221 115 290 272 279 282 268 242 234 279 321 341 321 289 227 182 243 251 258 258 251 231 196 184 191 198 198 197 188 200 192 190 187
163 213 254 264 294 80 171 242 253 226 225 205 216 232 266 292 283 250 210 43 74 62 348 309 313 121 183 244 259 267 268 243 218 190 184 192 194 194 183 174 175 179 189 197
151 196 251 300 57 178 226 266 246 236 225 218 247 266 281 282 272 243 327 358 32 44 324 321 321 155 198 249 268 287 296 268 261 227 208 201 175 182 177 168 170 179 186 208
192 217 256 276 244 259 248 261 268 249 259 232 256 270 271 269 259 247 224 230 226 196 238 313 274 183 206 264 279 142 72 25 327 310 229 172 168 164 164 164 173 184 184 201
260 270 285 293 294 296 287 270 279 273 261 237 247 255 250 241 237 239 246 253 264 152 117 313 305 260 207 226 220 155 135 122 144 146 154 127 136 150 159 174 181 185 188 199
263 282 311 310 301 300 317 318 321 325 311 246 239 253 230 211 208 207 224 251 240 234 231 273 291 345 70 177 155 142 148 148 134 128 126 114 102 116 176 205 200 193 199 190
230 236 229 268 286 302 305 301 296 303 308 303 256 236 216 208 206 199 203 205 189 238 258 287 311 321 296 228 169 151 151 147 137 132 126 131 120 70 48 72 120 177 183 184
226 235 240 262 280 285 284 288 295 289 274 278 281 241 209 206 214 204 198 189 196 210 221 244 293 300 294 247 154 152 157 160 143 136 138 144 141 139 90 34 46 51 99 154
237 246 275 274 272 285 288 283 316 350 335 290 251 221 188 189 188 186 218 222 206 185 204 230 273 297 304 187 145 146 144 148 150 155 155 153 156 163 158 148 96 20 29 75
272 245 242 269 289 310 316 360 29 356 346 354 35 84 121 146 215 254 262 223 142 147 218 224 265 288 290 168 154 153 149 154 154 155 154 157 156 145 145 148 154 150 55 24
303 323 294 276 298 331 359 7 352 315 351 19 31 16 291 244 254 276 312 140 164 223 244 234 252 266 235 170 161 167 166 163 156 154 150 149 154 158 167 167 174 181 194 197
244 280 287 290 295 300 302 300 256 228 217 201 237 236 94 54 32 360 330 302 225 234 245 239 249 254 222 186 179 182 173 167 160 158 169 171 181 190 193 190 195 208 230 228
231 234 227 223 233 253 285 296 285 258 251 257 261 61 87 154 243 274 291 319 348 323 297 270 249 220 208 199 184 171 163 164 172 179 183 183 193 200 201 206 214 222 242 234
248 245 250 245 239 232 251 265 267 256 252 249 207 207 243 248 248 259 289 339 315 292 287 273 241 212 214 209 188 166 159 161 171 181 187 186 196 212 213 217 224 228 229 227
339 310 280 274 267 243 248 256 258 270 268 197 171 167 263 281 281 275 282 277 268 264 273 271 242 231 230 216 194 178 176 177 184 193 191 195 212 230 231 227 228 230 229 230
342 338 325 303 291 271 253 246 227 250 288 197 187 210 235 272 293 283 297 298 298 293 289 269 243 238 228 207 194 183 181 185 198 208 217 224 230 242 244 239 236 236 232 236
336 332 322 337 8 313 299 283 221 180 150 165 246 222 249 314 314 308 278 262 284 303 308 288 262 239 214 199 195 196 200 210 226 231 234 235 234 240 243 239 238 239 235 236
332 322 289 248 223 260 306 302 259 204 187 198 212 231 238 246 244 252 286 288 288 296 299 280 261 236 218 200 196 206 214 225 239 237 234 232 233 237 240 238 233 229 228 225
334 342 347 4 60 68 328 302 302 285 241 226 224 227 238 272 289 264 256 283 290 287 296 287 272 257 238 209 198 201 217 230 236 241 240 238 241 244 240 231 233 232 220 210
314 347 18 44 47 308 284 315 351 345 338 321 305 289 258 221 240 280 290 294 297 301 310 308 291 268 224 200 198 204 216 221 225 233 237 232 235 239 233 218 212 208 205 207
297 283 266 256 251 262 269 283 285 288 289 302 308 308 308 297 285 293 305 313 314 313 306 303 304 278 221 202 205 213 218 230 236 241 243 239 238 227 213 207 208 206 205 210
289 289 317 334 327 294 248 229 238 264 251 243 278 296 304 318 325 327 333 335 327 316 306 308 308 191 181 199 235 256 263 275 267 234 240 240 230 213 213 213 213 211 204 212
Height
1501 1497 1498 1498 1499 1500 1503 1507 1513 1508 1505 1496 1493 1491 1489 1489 1488 1488 1488 1488 1489 1489 1490 1491 1492 1493 1494 1495 1497 1498 1499 1500 1500 1502 1504 1506 1507 1509 1510 1511 1512 1514 1515 1516
1499 1496 1496 1497 1495 1496 1497 1498 1500 1499 1499 1491 1490 1489 1488 1488 1487 1487 1487 1488 1488 1489 1489 1490 1490 1491 1492 1493 1494 1494 1495 1496 1497 1498 1500 1501 1503 1504 1505 1506 1507 1508 1509 1510
1508 1499 1497 1504 1495 1493 1493 1493 1494 1498 1493 1489 1489 1488 1487 1486 1486 1486 1486 1486 1486 1487 1487 1488 1488 1488 1489 1490 1490 1491 1491 1492 1493 1494 1495 1496 1498 1500 1501 1501 1502 1502 1504 1505
1512 1505 1512 1499 1487 1487 1490 1490 1488 1488 1487 1486 1487 1486 1485 1485 1485 1484 1484 1484 1485 1485 1485 1486 1486 1486 1487 1487 1487 1487 1487 1488 1489 1490 1491 1492 1493 1495 1496 1497 1498 1498 1499 1500
1516 1514 1507 1494 1487 1487 1490 1491 1486 1486 1486 1485 1485 1485 1484 1483 1483 1483 1483 1483 1483 1483 1483 1483 1484 1484 1483 1483 1484 1484 1484 1484 1485 1486 1486 1488 1489 1490 1491 1492 1493 1494 1495 1496
1513 1512 1512 1495 1484 1482 1486 1492 1485 1484 1484 1484 1485 1488 1483 1481 1481 1481 1481 1481 1481 1481 1481 1481 1481 1481 1481 1481 1481 1481 1481 1481 1481 1482 1482 1484 1485 1486 1486 1487 1489 1490 1491 1492
1510 1510 1502 1488 1483 1483 1495 1491 1482 1481 1481 1482 1483 1482 1481 1479 1479 1479 1479 1479 1479 1479 1479 1479 1479 1478 1478 1478 1478 1478 1478 1478 1478 1478 1479 1480 1481 1482 1483 1484 1486 1486 1487 1488
1510 1510 1503 1485 1484 1487 1486 1480 1479 1478 1478 1479 1479 1478 1479 1478 1477 1477 1476 1477 1477 1477 1477 1477 1477 1476 1476 1476 1476 1476 1476 1475 1475 1475 1476 1477 1478 1479 1480 1480 1481 1483 1484 1485
1499 1497 1487 1484 1483 1482 1480 1479 1477 1476 1476 1477 1476 1476 1476 1476 1476 1476 1476 1475 1475 1475 1474 1475 1474 1474 1474 1474 1474 1473 1473 1473 1473 1473 1473 1474 1474 1475 1476 1477 1478 1480 1481 1482
1493 1487 1484 1482 1481 1479 1478 1477 1476 1475 1475 1475 1475 1474 1474 1474 1474 1474 1474 1474 1473 1473 1472 1472 1472 1473 1472 1472 1473 1472 1471 1471 1471 1471 1471 1471 1472 1472 1474 1475 1476 1477 1478 1479
1490 1486 1483 1479 1479 1478 1476 1475 1474 1474 1474 1474 1473 1472 1472 1472 1472 1472 1472 1472 1472 1472 1471 1471 1471 1471 1470 1470 1470 1469 1469 1469 1469 1469 1469 1469 1470 1471 1472 1473 1474 1475 1475 1476
1487 1482 1482 1479 1478 1477 1475 1474 1473 1472 1472 1472 1472 1471 1471 1470 1470 1470 1470 1470 1471 1471 1471 1470 1470 1470 1469 1468 1468 1468 1467 1467 1467 1467 1468 1468 1468 1469 1470 1471 1472 1472 1473 1474
1479 1479 1479 1477 1476 1475 1474 1473 1472 1471 1471 1471 1470 1470 1469 1469 1469 1468 1468 1469 1469 1469 1469 1469 1469 1468 1468 1467 1467 1467 1466 1466 1466 1466 1467 1467 1467 1468 1468 1469 1470 1470 1471 1472
1477 1477 1475 1475 1474 1473 1472 1472 1471 1470 1470 1469 1469 1468 1468 1467 1467 1467 1467 1467 1467 1467 1467 1467 1467 1466 1466 1466 1466 1466 1466 1465 1465 1466 1466 1467 1467 1467 1467 1467 1467 1468 1470 1471
1475 1475 1474 1473 1473 1472 1471 1470 1469 1468 1468 1468 1467 1467 1466 1466 1466 1466 1466 1466 1466 1466 1466 1466 1466 1465 1465 1465 1465 1464 1464 1464 1465 1465 1465 1466 1466 1466 1466 1466 1467 1467 1468 1469
1473 1473 1472 1472 1471 1470 1469 1468 1467 1467 1467 1466 1466 1466 1466 1465 1465 1465 1465 1465 1464 1464 1464 1464 1464 1464 1463 1463 1463 1463 1463 1463 1464 1464 1464 1465 1465 1465 1465 1465 1466 1466 1466 1467
1471 1471 1470 1470 1469 1469 1469 1468 1467 1467 1466 1466 1465 1465 1464 1464 1464 1463 1463 1463 1463 1463 1463 1463 1463 1463 1462 1462 1462 1461 1461 1462 1462 1463 1463 1463 1464 1464 1464 1464 1464 1465 1465 1466
1470 1469 1469 1468 1468 1468 1467 1467 1467 1466 1465 1465 1465 1464 1463 1463 1462 1462 1462 1462 1461 1461 1461 1461 1461 1461 1461 1460 1460 1460 1460 1460 1461 1461 1461 1462 1462 1463 1463 1463 1463 1464 1464 1465
1467 1468 1467 1467 1467 1466 1466 1465 1465 1465 1464 1464 1464 1463 1463 1462 1462 1461 1461 1460 1460 1459 1459 1459 1459 1459 1459 1459 1459 1458 1458 1459 1459 1460 1460 1460 1461 1461 1462 1462 1462 1462 1463 1463
1465 1465 1465 1465 1465 1464 1464 1464 1464 1463 1463 1463 1463 1462 1462 1461 1461 1460 1460 1459 1458 1458 1458 1457 1457 1457 1457 1457 1457 1457 1457 1457 1458 1458 1458 1459 1459 1459 1459 1460 1460 1461 1461 1461
1464 1464 1464 1463 1463 1463 1463 1463 1463 1462 1462 1462 1462 1461 1461 1460 1460 1460 1458 1457 1457 1457 1456 1456 1455 1455 1455 1455 1455 1455 1455 1455 1456 1456 1456 1456 1457 1457 1457 1457 1458 1458 1458 1458
1463 1463 1463 1462 1462 1462 1462 1462 1462 1461 1461 1461 1461 1460 1460 1459 1459 1459 1458 1457 1456 1455 1454 1454 1454 1454 1454 1453 1453 1454 1454 1454 1454 1454 1454 1454 1454 1454 1455 1455 1455 1456 1456 1456
1462 1462 1462 1462 1461 1461 1461 1461 1461 1461 1460 1460 1460 1460 1459 1459 1459 1458 1457 1457 1455 1454 1453 1453 1452 1452 1452 1452 1452 1452 1452 1452 1452 1452 1452 1452 1452 1452 1452 1453 1453 1453 1453 1453
1462 1462 1461 1461 1461 1460 1460 1460 1460 1460 1460 1459 1459 1459 1458 1458 1458 1457 1456 1455 1454 1453 1452 1451 1451 1451 1451 1450 1450 1450 1450 1450 1450 1450 1450 1449 1449 1450 1450 1450 1450 1450 1450 1450
1462 1462 1461 1461 1460 1460 1460 1460 1459 1459 1458 1458 1458 1458 1457 1457 1456 1455 1454 1453 1452 1451 1450 1450 1449 1449 1449 1449 1449 1449 1448 1448 1448 1448 1447 1447 1447 1447 1447 1447 1447 1448 1448 1447
1462 1461 1461 1461 1460 1460 1459 1459 1459 1458 1458 1457 1456 1456 1456 1455 1454 1453 1452 1451 1450 1449 1448 1447 1447 1447 1447 1447 1447 1447 1446 1446 1445 1445 1445 1445 1445 1445 1445 1445 1445 1445 1445 1445
1461 1460 1460 1460 1460 1459 1459 1459 1458 1457 1457 1456 1455 1455 1454 1454 1453 1452 1451 1449 1448 1446 1445 1445 1445 1445 1445 1445 1445 1445 1444 1444 1443 1443 1443 1443 1443 1443 1442 1442 1442 1443 1443 1443